Location: ????????
(38.4362°N, 22.8767°E)
Time: 14:36:36
(UTC+00:00)

ACS3 Solar Sail - Pass Details

Date: 30 June 2024
Orbit: 993 x 1023 km, 97.4° (Epoch: 18 July)

Event Time Altitude Azimuth Distance (km) Brightness Sun altitude
Exits shadow 18:52:40 12° 123° (ESE) 2,623 6.4 -9.8°
Maximum altitude 18:57:28 30° 68° (ENE) 1,716 5.9 -10.5°
Drops below altitude 10° 19:02:42 10° 10° (N) 2,764 7.6 -11.3°
Sets 19:05:29 0° 360° (N) 3,717 8.5 -11.7°
